Weather History for Douglas, WY

Change the Weather History Date:

Wednesday, November 7, 2012

  Actual Average Record
Temperature  
Mean Temperature 48 °F 37 °F  
Max Temperature 74 °F 51 °F 76 °F (1999)
Min Temperature 22 °F 23 °F -1 °F (2003)
Degree Days  
Heating Degree Days 17 28  
Month to date heating degree days 137 184  
Since 1 July heating degree days 907 1051  
Cooling Degree Days 0 0  
Month to date cooling degree days 0 0  
Year to date cooling degree days 831 486  
Moisture  
Dew Point 22 °F    
Average Humidity 51    
Maximum Humidity 88    
Minimum Humidity 13    
Precipitation  
Precipitation 0.00 in 0.02 in 0.09 in (2001)
Month to date precipitation 0.00 0.20  
Year to date precipitation 5.08 12.54  
Sea Level Pressure  
Sea Level Pressure 29.91 in    
Wind  
Wind Speed 8 mph (West)    
Max Wind Speed 29 mph    
Max Gust Speed 36 mph    
Visibility 10 miles    
Events      
T = Trace of Precipitation, MM = Missing Value Source: NWS Daily Summary

Daily Weather History Graph

Daily Weather History Graph

Search for Another Location

Airport:

Trip Planner

Search our weather history database for the weather conditions in past years. The results will help you decide how hot, cold, wet, or windy it might be!

Date:

Astronomy

Nov. 07, 2012 Rise Set
Actual Time 6:43 AM MST 4:45 PM MST
Civil Twilight 6:14 AM MST 5:15 PM MST
Nautical Twilight 5:40 AM MST 5:49 PM MST
Astronomical Twilight 5:07 AM MST 6:22 PM MST
Moon No Moon Rise 1:05 PM MST (11/7)
Length of Visible Light 11h 01m
Length of Day
10h 02m
Last Quarter, 42% of the Moon is Illuminated
Nov 7
Last Quarter
Nov 13
New
Nov 20
First Quarter
Nov 28
Full
Dec 6
Last Quarter

Hourly Weather History & Observations

Time (MST) Temp. Windchill Dew Point Humidity Pressure Visibility Wind Dir Wind Speed Gust Speed Precip Events Conditions
12:53 AM 30.9 °F - 26.1 °F 82% 30.08 in 10.0 mi Calm Calm - N/A   Clear
1:53 AM 28.0 °F - 24.1 °F 85% 30.07 in 10.0 mi Calm Calm - N/A   Clear
2:53 AM 28.9 °F 25.2 °F 24.1 °F 82% 30.04 in 10.0 mi SE 3.5 mph - N/A   Clear
3:53 AM 28.0 °F - 24.1 °F 85% 30.02 in 10.0 mi Calm Calm - N/A   Clear
5:53 AM 26.1 °F - 23.0 °F 88% 30.05 in 10.0 mi Calm Calm - N/A   Clear
6:53 AM 24.1 °F - 19.9 °F 84% 30.07 in 10.0 mi Calm Calm - N/A   Clear
7:53 AM 32.0 °F 28.7 °F 28.0 °F 85% 30.04 in 10.0 mi SSE 3.5 mph - N/A   Clear
8:53 AM 53.1 °F - 32.0 °F 45% 29.95 in 10.0 mi Calm Calm - N/A   Clear
9:53 AM 64.9 °F - 26.1 °F 23% 29.91 in 10.0 mi WNW 6.9 mph - N/A   Clear
10:53 AM 70.0 °F - 19.0 °F 14% 29.87 in 10.0 mi West 26.5 mph 33.4 mph N/A   Clear
11:53 AM 71.1 °F - 17.1 °F 13% 29.84 in 10.0 mi West 23.0 mph 28.8 mph N/A   Clear
12:53 PM 72.0 °F - 17.1 °F 12% 29.82 in 10.0 mi West 18.4 mph 29.9 mph N/A   Clear
1:53 PM 72.0 °F - 18.0 °F 13% 29.81 in 10.0 mi West 21.9 mph 28.8 mph N/A   Clear
2:53 PM 71.1 °F - 19.0 °F 14% 29.80 in 10.0 mi West 18.4 mph - N/A   Clear
3:53 PM 69.1 °F - 19.0 °F 15% 29.81 in 10.0 mi West 20.7 mph - N/A   Clear
4:53 PM 60.1 °F - 19.9 °F 21% 29.85 in 10.0 mi WSW 6.9 mph - N/A   Clear
5:53 PM 57.9 °F - 21.0 °F 24% 29.86 in 10.0 mi SW 6.9 mph - N/A   Clear
6:53 PM 51.1 °F - 21.0 °F 31% 29.89 in 10.0 mi Calm Calm - N/A   Clear
7:53 PM 55.9 °F - 21.9 °F 27% 29.85 in 10.0 mi WNW 3.5 mph - N/A   Clear
8:53 PM 48.9 °F - 21.9 °F 35% 29.81 in 10.0 mi North 4.6 mph - N/A   Clear
9:53 PM 48.9 °F - 23.0 °F 36% 29.77 in 10.0 mi NW 3.5 mph - N/A   Clear
10:53 PM 46.0 °F 43.1 °F 21.9 °F 39% 29.77 in 10.0 mi WNW 5.8 mph - N/A   Clear